FW6054 Weather Reports


time (UTC)temp
F
wind
direction
speed
knots
gust
knots
rain 1hr
in
rain 24hr
in
rain mn
in
humidity
%
barometer
mb
20260506213113 56 0 0.9 5.2 0.21 0.51 0.46 93 1005.3
20260506211605 58 352 1.7 10.4 0.14 0.44 0.39 91 1004.9
20260506204558 62 139 0.9 4.3 0.00 0.30 0.25 94 1003.8
20260506203058 62 186 0.0 4.3 0.00 0.30 0.25 94 1004.0
20260506201609 62 188 0.9 3.5 0.00 0.30 0.25 95 1004.2
20260506200059 62 210 0.9 5.2 0.00 0.30 0.25 95 1004.2
20260506194603 62 219 0.0 3.5 0.01 0.30 0.25 95 1004.5
20260506193048 62 188 0.9 4.3 0.02 0.30 0.25 94 1004.5
20260506191552 62 0 0.9 7.0 0.02 0.30 0.25 94 1004.5
20260506190057 61 228 1.7 6.1 0.04 0.30 0.25 94 1004.6
20260506184606 61 184 1.7 7.0 0.03 0.29 0.24 94 1004.7
20260506183102 61 170 1.7 5.2 0.03 0.28 0.23 94 1004.8
20260506181550 61 0 1.7 7.8 0.04 0.28 0.23 94 1004.8
20260506180058 61 0 1.7 7.8 0.03 0.26 0.21 94 1005.1
20260506174553 61 287 0.9 3.5 0.04 0.26 0.21 95 1005.1
20260506173052 61 189 1.7 7.8 0.04 0.25 0.20 95 1005.0
20260506171552 61 155 0.9 8.7 0.05 0.24 0.19 95 1004.9
20260506170108 60 84 1.7 7.0 0.06 0.23 0.18 95 1005.2
20260506164550 59 211 0.9 4.3 0.07 0.22 0.17 95 1005.6
20260506163102 58 0 0.9 3.5 0.08 0.21 0.16 94 1005.6
20260506161553 58 0 0.0 1.7 0.07 0.19 0.14 94 1005.7
20260506160056 57 0 0.0 1.7 0.06 0.17 0.12 93 1005.9
20260506154555 57 0 0.0 1.7 0.05 0.15 0.10 93 1006.3
20260506153053 57 0 0.0 0.9 0.05 0.13 0.08 93 1006.4
20260506151550 57 0 0.0 0.0 0.06 0.12 0.07 92 1006.5
20260506150049 57 0 0.0 0.0 0.06 0.11 0.06 92 1006.7
20260506144603 57 0 0.0 0.0 0.05 0.10 0.05 91 1006.9
20260506143055 57 0 0.0 0.9 0.03 0.08 0.03 90 1007.4
20260506141553 57 0 0.0 0.9 0.01 0.06 0.01 89 1007.5
20260506140053 57 0 0.0 0.9 0.00 0.05 0.00 88 1007.2
20260506134549 57 0 0.0 0.9 0.00 0.05 0.00 87 1007.2
20260506133054 57 0 0.0 1.7 0.00 0.05 0.00 88 1007.0
20260506131552 57 0 0.0 0.9 0.00 0.05 0.00 88 1006.9
20260506130058 57 0 0.0 0.9 0.00 0.05 0.00 89 1007.1
20260506124550 56 0 0.0 0.9 0.00 0.05 0.00 88 1007.0
20260506123052 56 0 0.0 2.6 0.00 0.05 0.00 88 1007.5
20260506121553 56 0 0.0 0.9 0.00 0.05 0.00 88 1008.0
20260506120055 56 0 0.0 1.7 0.00 0.05 0.00 88 1007.7
20260506114553 56 0 0.0 0.9 0.00 0.05 0.00 88 1007.8
20260506113049 56 0 0.0 1.7 0.00 0.05 0.00 88 1007.4
20260506111551 55 0 0.0 1.7 0.00 0.05 0.00 88 1007.5
20260506110054 55 0 0.0 1.7 0.00 0.05 0.00 89 1006.9
20260506104551 55 0 0.0 0.9 0.00 0.05 0.00 88 1007.1
20260506103053 55 0 0.0 1.7 0.00 0.05 0.00 89 1007.4
20260506101550 55 0 0.0 0.0 0.00 0.05 0.00 88 1007.0
20260506100050 55 0 0.0 0.0 0.00 0.05 0.00 88 1006.9
20260506094603 55 0 0.0 0.0 0.00 0.05 0.00 88 1006.8
20260506093053 55 0 0.0 0.0 0.00 0.05 0.00 87 1006.8
20260506091604 55 0 0.0 0.0 0.00 0.05 0.00 87 1006.8
20260506090056 55 0 0.0 0.0 0.00 0.05 0.00 86 1006.9
20260506084612 56 0 0.0 0.0 0.00 0.05 0.00 86 1007.1
20260506083050 56 0 0.0 0.0 0.00 0.05 0.00 85 1007.4
20260506081548 56 0 0.0 0.9 0.00 0.05 0.00 85 1007.3
20260506073057 57 0 0.0 0.0 0.00 0.05 0.00 86 1007.9
20260506071553 57 0 0.0 0.0 0.00 0.05 0.00 85 1008.0
20260506061600 57 0 0.0 1.7 0.00 0.05 0.00 84 1008.5
20260506050110 59 0 0.0 0.0 0.00 0.05 0.00 84 1008.5
20260506044554 59 0 0.0 1.7 0.00 0.05 0.00 82 1008.7
20260506043101 59 355 0.9 4.3 0.00 0.05 0.00 82 1008.5
20260506041557 60 0 0.0 3.5 0.00 0.05 0.00 83 1008.5
20260506040104 60 53 0.9 5.2 0.00 0.05 0.00 85 1008.2
20260506034604 61 34 0.0 7.8 0.03 0.05 0.05 87 1008.1
20260506033059 62 12 1.7 5.2 0.04 0.05 0.05 89 1007.9
20260506031600 62 330 0.9 3.5 0.04 0.05 0.05 90 1007.5
20260506030107 62 0 0.0 3.5 0.04 0.05 0.05 90 1007.6
20260506024602 63 18 0.0 1.7 0.01 0.02 0.02 89 1008.1
20260506023114 63 0 0.0 0.0 0.00 0.01 0.01 88 1007.4
20260506021608 64 0 0.0 0.0 0.00 0.01 0.01 87 1007.4
20260506020059 64 0 0.0 0.0 0.00 0.01 0.01 85 1007.2
20260506014557 64 0 0.0 0.9 0.00 0.01 0.01 84 1007.3
20260506013059 64 0 0.0 0.0 0.00 0.01 0.01 84 1007.0
20260506011603 64 0 0.0 0.0 0.00 0.01 0.01 83 1007.0
20260506010051 65 0 0.0 0.9 0.00 0.01 0.01 83 1006.9
20260506004552 65 0 0.0 0.9 0.00 0.01 0.01 82 1006.8
20260506003049 65 22 0.0 0.9 0.00 0.01 0.01 82 1006.8
20260506001551 65 0 0.0 1.7 0.00 0.01 0.01 81 1006.2
20260506000052 66 0 0.0 0.0 0.00 0.01 0.01 80 1006.0
20260505234600 66 0 0.0 0.9 0.00 0.01 0.01 80 1006.0
20260505233049 66 0 0.0 0.9 0.00 0.01 0.01 80 1005.8
20260505231604 66 0 0.0 0.9 0.00 0.01 0.01 81 1005.6
20260505230055 66 0 0.0 0.9 0.00 0.01 0.01 81 1005.9
20260505224552 66 0 0.0 0.9 0.01 0.01 0.01 80 1005.9
20260505223102 66 0 0.0 1.7 0.01 0.01 0.01 78 1005.7
20260505221557 66 0 0.0 5.2 0.01 0.01 0.01 78 1006.1
20260505220052 67 339 1.7 7.8 0.01 0.01 0.01 75 1005.9
20260505214612 71 335 2.6 10.4 0.00 0.00 0.00 65 1005.3